| time (UTC) | temp C | wind direction | speed KPH | gust KPH | rain 1hr cm | rain 24hr cm | rain mn cm | humidity % | barometer mb |
| 20260506175831 | 13 | 124 | 3.2 | 8.0 | 0.00 | 0.00 | 19.18 | 81 | 1014.5 |
| 20260506174818 | 13 | 126 | 6.4 | 9.7 | 0.00 | 0.00 | 18.16 | 82 | 1014.5 |
| 20260506170849 | 12 | 89 | 4.8 | 6.4 | 0.00 | 0.00 | 14.10 | 86 | 1014.8 |
| 20260506165809 | 12 | 71 | 3.2 | 9.7 | 0.00 | 0.00 | 13.08 | 87 | 1014.8 |
| 20260506164821 | 12 | 59 | 3.2 | 9.7 | 0.00 | 0.00 | 12.06 | 87 | 1014.8 |
| 20260506162810 | 12 | 116 | 3.2 | 6.4 | 0.00 | 0.00 | 10.03 | 90 | 1015.2 |
| 20260506161811 | 12 | 55 | 3.2 | 8.0 | 0.00 | 0.00 | 9.02 | 90 | 1015.2 |
| 20260506160816 | 12 | 31 | 6.4 | 9.7 | 0.00 | 0.00 | 8.00 | 90 | 1015.5 |
| 20260506155828 | 12 | 104 | 4.8 | 6.4 | 0.00 | 0.00 | 6.99 | 91 | 1014.8 |
| 20260506154840 | 12 | 88 | 4.8 | 8.0 | 0.00 | 0.00 | 5.97 | 92 | 1014.5 |
| 20260506151827 | 11 | 123 | 4.8 | 8.0 | 0.00 | 0.00 | 2.90 | 94 | 1015.2 |
| 20260506150831 | 11 | 101 | 3.2 | 8.0 | 0.00 | 0.00 | 1.91 | 94 | 1015.5 |
| 20260506145830 | 11 | 155 | 4.8 | 8.0 | 0.00 | 0.00 | 0.89 | 93 | 1015.9 |
| 20260506144821 | 11 | 110 | 3.2 | 6.4 | 0.00 | 0.00 | 0.08 | 89 | 1016.5 |
| 20260506143836 | 11 | 99 | 4.8 | 6.4 | 0.00 | 0.00 | 0.00 | 86 | 1016.5 |
| 20260506141848 | 11 | 122 | 4.8 | 9.7 | 0.00 | 0.00 | 0.00 | 86 | 1014.8 |
| 20260506140816 | 12 | 118 | 4.8 | 9.7 | 0.00 | 0.00 | 0.00 | 87 | 1014.5 |
| 20260506135845 | 11 | 181 | 4.8 | 9.7 | 0.00 | 0.00 | 0.00 | 85 | 1014.5 |
| 20260506134840 | 11 | 240 | 4.8 | 14.5 | 0.00 | 0.00 | 0.00 | 85 | 1015.5 |
| 20260506132834 | 11 | 246 | 6.4 | 9.7 | 0.00 | 0.00 | 0.00 | 84 | 1014.5 |
| 20260506131806 | 12 | 92 | 4.8 | 11.3 | 0.00 | 0.00 | 0.00 | 83 | 1014.2 |
| 20260506130820 | 12 | 210 | 4.8 | 9.7 | 0.00 | 0.00 | 0.00 | 83 | 1014.2 |
| 20260506125827 | 12 | 51 | 6.4 | 11.3 | 0.00 | 0.00 | 0.00 | 82 | 1013.8 |
| 20260506124808 | 12 | 88 | 4.8 | 9.7 | 0.00 | 0.00 | 0.00 | 81 | 1013.8 |
| 20260506123809 | 12 | 182 | 6.4 | 12.9 | 0.00 | 0.00 | 0.00 | 80 | 1013.5 |
| 20260506122826 | 12 | 159 | 6.4 | 11.3 | 0.00 | 0.00 | 0.00 | 79 | 1013.5 |
| 20260506121810 | 12 | 187 | 4.8 | 8.0 | 0.00 | 0.00 | 0.00 | 78 | 1013.5 |
| 20260506120845 | 13 | 123 | 4.8 | 8.0 | 0.00 | 0.00 | 0.00 | 78 | 1013.2 |
| 20260506115848 | 13 | 93 | 4.8 | 9.7 | 0.00 | 0.00 | 0.00 | 77 | 1013.2 |
| 20260506113837 | 13 | 85 | 4.8 | 9.7 | 0.00 | 0.00 | 0.00 | 77 | 1013.2 |
| 20260506112843 | 13 | 85 | 3.2 | 6.4 | 0.00 | 0.00 | 0.00 | 77 | 1012.8 |
| 20260506111822 | 13 | 61 | 4.8 | 9.7 | 0.00 | 0.00 | 0.00 | 76 | 1012.8 |
| 20260506110819 | 13 | 30 | 6.4 | 16.1 | 0.00 | 0.00 | 0.00 | 76 | 1012.5 |
| 20260506105834 | 14 | 225 | 6.4 | 9.7 | 0.00 | 0.00 | 0.00 | 78 | 1012.1 |
| 20260506103839 | 14 | 90 | 3.2 | 6.4 | 0.00 | 0.00 | 0.00 | 77 | 1011.8 |
| 20260506102813 | 14 | 113 | 4.8 | 12.9 | 0.00 | 0.00 | 0.00 | 76 | 1011.8 |
| 20260506101827 | 14 | 98 | 4.8 | 8.0 | 0.00 | 0.00 | 0.00 | 77 | 1011.8 |
| 20260506100836 | 14 | 132 | 3.2 | 8.0 | 0.00 | 0.00 | 0.00 | 77 | 1011.5 |
| 20260506095829 | 14 | 124 | 3.2 | 8.0 | 0.00 | 0.00 | 0.00 | 78 | 1011.1 |
| 20260506094838 | 14 | 118 | 3.2 | 6.4 | 0.00 | 0.00 | 0.00 | 78 | 1011.1 |
| 20260506093838 | 14 | 145 | 4.8 | 9.7 | 0.00 | 0.00 | 0.00 | 78 | 1010.8 |
| 20260506091808 | 15 | 56 | 3.2 | 6.4 | 0.00 | 0.00 | 0.00 | 79 | 1011.1 |
| 20260506085844 | 15 | 181 | 3.2 | 6.4 | 0.00 | 0.00 | 0.00 | 79 | 1010.8 |
| 20260506084840 | 15 | 190 | 4.8 | 9.7 | 0.00 | 0.00 | 0.00 | 79 | 1011.1 |
| 20260506083814 | 15 | 219 | 3.2 | 6.4 | 0.00 | 0.00 | 0.00 | 79 | 1010.8 |
| 20260506082848 | 15 | 185 | 4.8 | 6.4 | 0.00 | 0.00 | 0.00 | 79 | 1010.8 |
| 20260506081847 | 15 | 251 | 4.8 | 8.0 | 0.00 | 0.00 | 0.00 | 79 | 1010.4 |
| 20260506080830 | 15 | 113 | 3.2 | 8.0 | 0.00 | 0.00 | 0.00 | 80 | 1010.8 |
| 20260506071807 | 16 | 128 | 3.2 | 6.4 | 0.00 | 0.00 | 0.00 | 80 | 1010.4 |
| 20260506070846 | 16 | 156 | 3.2 | 6.4 | 0.00 | 0.00 | 0.00 | 80 | 1010.1 |
| 20260506060831 | 16 | 125 | 4.8 | 8.0 | 0.00 | 0.00 | 0.00 | 79 | 1010.1 |
| 20260506050831 | 17 | 60 | 4.8 | 14.5 | 0.00 | 0.00 | 0.00 | 78 | 1010.1 |
| 20260506044817 | 17 | 156 | 4.8 | 9.7 | 0.00 | 0.00 | 0.00 | 78 | 1010.1 |
| 20260506043808 | 18 | 128 | 3.2 | 9.7 | 0.00 | 0.00 | 0.00 | 77 | 1010.1 |
| 20260506042847 | 18 | 117 | 4.8 | 11.3 | 0.00 | 0.00 | 0.00 | 77 | 1010.1 |
| 20260506041830 | 18 | 307 | 6.4 | 12.9 | 0.00 | 0.00 | 0.00 | 78 | 1009.8 |
| 20260506040826 | 19 | 180 | 6.4 | 12.9 | 0.00 | 0.00 | 0.00 | 76 | 1010.1 |
| 20260506034842 | 19 | 175 | 4.8 | 8.0 | 0.00 | 0.00 | 0.00 | 75 | 1009.8 |
| 20260506032821 | 20 | 152 | 3.2 | 8.0 | 0.00 | 0.00 | 0.00 | 73 | 1009.4 |
| 20260506031826 | 20 | 217 | 6.4 | 9.7 | 0.00 | 0.00 | 0.00 | 73 | 1009.1 |
| 20260506030831 | 20 | 180 | 4.8 | 11.3 | 0.00 | 0.00 | 0.00 | 72 | 1009.1 |
| 20260506025818 | 20 | 89 | 4.8 | 14.5 | 0.00 | 0.00 | 0.00 | 72 | 1008.4 |
| 20260506024820 | 20 | 124 | 4.8 | 8.0 | 0.00 | 0.00 | 0.00 | 71 | 1008.4 |
| 20260506021841 | 21 | 151 | 4.8 | 11.3 | 0.00 | 0.00 | 0.00 | 71 | 1008.1 |
| 20260506020843 | 21 | 277 | 4.8 | 12.9 | 0.00 | 0.00 | 0.00 | 71 | 1007.7 |
| 20260506015826 | 21 | 277 | 4.8 | 11.3 | 0.00 | 0.00 | 0.00 | 71 | 1007.4 |
| 20260506014822 | 22 | 241 | 3.2 | 6.4 | 0.00 | 0.00 | 0.00 | 70 | 1007.4 |
| 20260506013845 | 22 | 184 | 3.2 | 8.0 | 0.00 | 0.00 | 0.00 | 69 | 1007.1 |
| 20260506012804 | 22 | 84 | 4.8 | 9.7 | 0.00 | 0.00 | 0.00 | 69 | 1006.7 |
| 20260506011816 | 23 | 153 | 3.2 | 6.4 | 0.00 | 0.00 | 0.00 | 68 | 1006.7 |
| 20260506010840 | 23 | 310 | 4.8 | 9.7 | 0.00 | 0.00 | 0.00 | 67 | 1006.4 |
| 20260506005813 | 23 | 306 | 3.2 | 6.4 | 0.00 | 0.00 | 0.00 | 66 | 1006.0 |
| 20260506004809 | 23 | 120 | 3.2 | 4.8 | 0.00 | 0.00 | 0.00 | 67 | 1006.0 |
| 20260506003846 | 23 | 239 | 4.8 | 9.7 | 0.00 | 0.00 | 0.00 | 66 | 1006.0 |
| 20260506002829 | 24 | 180 | 4.8 | 8.0 | 0.00 | 0.00 | 0.00 | 65 | 1005.7 |
| 20260506001804 | 25 | 160 | 1.6 | 8.0 | 0.00 | 0.00 | 0.00 | 63 | 1006.0 |
| 20260506000804 | 25 | 97 | 1.6 | 4.8 | 0.00 | 0.00 | 0.00 | 62 | 1005.7 |
| 20260505234810 | 25 | 205 | 4.8 | 14.5 | 0.00 | 0.00 | 0.00 | 62 | 1005.7 |
| 20260505233834 | 26 | 279 | 4.8 | 11.3 | 0.00 | 0.00 | 0.00 | 61 | 1005.4 |
| 20260505232839 | 26 | 183 | 3.2 | 6.4 | 0.00 | 0.00 | 0.00 | 62 | 1005.0 |
| 20260505231815 | 27 | 213 | 4.8 | 9.7 | 0.00 | 0.00 | 0.00 | 63 | 1005.0 |
| 20260505230810 | 27 | 211 | 4.8 | 9.7 | 0.00 | 0.00 | 0.00 | 62 | 1005.0 |
| 20260505225808 | 28 | 221 | 4.8 | 9.7 | 0.00 | 0.00 | 0.00 | 61 | 1004.7 |
| 20260505224841 | 28 | 148 | 1.6 | 4.8 | 0.00 | 0.00 | 0.00 | 54 | 1004.7 |
| 20260505222819 | 30 | 308 | 4.8 | 6.4 | 0.00 | 0.00 | 0.00 | 49 | 1004.7 |
| 20260505221832 | 30 | 276 | 3.2 | 6.4 | 0.00 | 0.00 | 0.00 | 49 | 1004.7 |
| 20260505215829 | 32 | 274 | 1.6 | 3.2 | 0.00 | 0.00 | 0.00 | 48 | 1004.0 |
| 20260505213833 | 32 | 327 | 1.6 | 4.8 | 0.00 | 0.00 | 0.00 | 48 | 1004.0 |
| 20260505211840 | 32 | 280 | 1.6 | 4.8 | 0.00 | 0.00 | 0.00 | 48 | 1004.3 |
| 20260505210846 | 32 | 296 | 1.6 | 4.8 | 0.00 | 0.00 | 0.00 | 46 | 1004.7 |
| 20260505205808 | 32 | 277 | 1.6 | 4.8 | 0.00 | 0.00 | 0.00 | 46 | 1004.7 |
| 20260505204830 | 32 | 210 | 1.6 | 4.8 | 0.00 | 0.00 | 0.00 | 47 | 1004.7 |
| 20260505203816 | 32 | 236 | 0.0 | 3.2 | 0.00 | 0.00 | 0.00 | 52 | 1005.0 |
| 20260505202823 | 32 | 179 | 1.6 | 6.4 | 0.00 | 0.00 | 0.00 | 51 | 1005.0 |
| 20260505201816 | 32 | 232 | 1.6 | 8.0 | 0.00 | 0.00 | 0.00 | 53 | 1005.0 |
| 20260505195829 | 32 | 213 | 3.2 | 6.4 | 0.00 | 0.00 | 0.00 | 53 | 1005.0 |
| 20260505194810 | 31 | 222 | 3.2 | 8.0 | 0.00 | 0.00 | 0.00 | 53 | 1005.4 |
| 20260505193806 | 32 | 230 | 1.6 | 6.4 | 0.00 | 0.00 | 0.00 | 52 | 1005.4 |
| 20260505192838 | 31 | 205 | 3.2 | 8.0 | 0.00 | 0.00 | 0.00 | 56 | 1005.4 |
| 20260505191809 | 31 | 211 | 3.2 | 11.3 | 0.00 | 0.00 | 0.00 | 56 | 1005.4 |
| 20260505190838 | 31 | 230 | 3.2 | 6.4 | 0.00 | 0.00 | 0.00 | 55 | 1005.4 |
| 20260505185825 | 31 | 187 | 3.2 | 8.0 | 0.00 | 0.00 | 0.00 | 56 | 1005.4 |
| 20260505184837 | 30 | 233 | 3.2 | 8.0 | 0.00 | 0.00 | 0.00 | 59 | 1005.0 |
| 20260505183805 | 30 | 225 | 1.6 | 6.4 | 0.00 | 0.00 | 0.00 | 62 | 1005.7 |
| 20260505182817 | 30 | 183 | 3.2 | 9.7 | 0.00 | 0.00 | 0.00 | 59 | 1005.7 |
| 20260505181805 | 29 | 195 | 3.2 | 9.7 | 0.00 | 0.00 | 0.00 | 65 | 1005.7 |